Back to catalog

NIMBUS 2 DEB

AliveLEO
NORAD 28619·DEBRIS·🇺🇸 United States

Launched May 15, 1966 from Vandenberg Space Force Base

Loading…

Next Passes (next 24 hours)

TLE

FreshSource: Space-Track

Epoch: Sep 13, 2026, 08:21 UTC

1 28619U 66040AJ  26256.34806978  .00003688  00000-0  29792-2 0  9994
2 28619 100.3104  88.2035 0033896  20.7057 103.2649 13.90744769597098

Track NIMBUS 2 DEB in real time with AllMySat

Download on the App Store